Time,TemperatureF,DewpointF,PressureIn,WindDirection,WindDirectionDegrees,WindSpeedMPH,WindSpeedGustMPH,Humidity,HourlyPrecipIn,Conditions,Clouds,dailyrainin,SoftwareType,DateUTC
2013-07-25 00:11:00,53.0,50.0,29.96,SSW,203,3.0,3.0,89,0.00,,,0.00,,2013-07-25 07:11:00,
2013-07-25 00:32:00,53.0,50.0,29.96,WSW,248,3.0,4.0,89,0.00,,,0.00,,2013-07-25 07:32:00,
2013-07-25 00:43:00,53.0,50.0,29.96,SW,225,2.0,3.0,89,0.00,,,0.00,,2013-07-25 07:43:00,
2013-07-25 00:53:00,53.0,50.0,29.93,SSW,203,3.0,3.0,90,0.00,,,0.00,,2013-07-25 07:53:00,
2013-07-25 01:02:00,53.0,50.0,29.96,SSE,158,6.0,6.0,90,0.00,,,0.00,,2013-07-25 08:02:00,
2013-07-25 01:12:00,53.0,50.0,29.96,SW,225,3.0,4.0,90,0.00,,,0.00,,2013-07-25 08:12:00,
2013-07-25 01:32:00,53.0,50.0,29.96,SW,225,1.0,2.0,90,0.00,,,0.00,,2013-07-25 08:32:00,
2013-07-25 01:44:00,53.0,50.0,29.96,SSW,203,3.0,3.0,90,0.00,,,0.00,,2013-07-25 08:44:00,
2013-07-25 02:33:00,53.0,50.0,29.93,SW,225,8.0,8.0,91,0.00,,,0.00,,2013-07-25 09:33:00,
2013-07-25 02:43:00,53.0,50.0,29.93,SSW,203,7.0,7.0,90,0.00,,,0.00,,2013-07-25 09:43:00,
2013-07-25 02:52:00,53.0,50.0,29.96,SW,225,4.0,7.0,90,0.00,,,0.00,,2013-07-25 09:52:00,
2013-07-25 03:02:00,53.0,50.0,29.96,SW,225,6.0,6.0,90,0.00,,,0.00,,2013-07-25 10:02:00,
2013-07-25 03:12:00,53.0,50.0,29.96,WSW,248,3.0,6.0,91,0.00,,,0.00,,2013-07-25 10:12:00,
2013-07-25 03:53:00,53.0,50.0,29.93,WSW,248,3.0,3.0,90,0.00,,,0.00,,2013-07-25 10:53:00,
2013-07-25 04:02:00,53.0,50.0,29.93,West,270,4.0,4.0,90,0.00,,,0.00,,2013-07-25 11:02:00,
2013-07-25 04:32:00,53.0,50.0,29.93,SW,225,3.0,3.0,91,0.00,,,0.00,,2013-07-25 11:32:00,
2013-07-25 04:43:00,53.0,50.0,29.96,WSW,248,3.0,3.0,91,0.00,,,0.00,,2013-07-25 11:43:00,
2013-07-25 05:02:00,52.0,50.0,29.96,SSW,203,2.0,5.0,92,0.00,,,0.00,,2013-07-25 12:02:00,
2013-07-25 05:32:00,52.0,50.0,29.96,SW,225,5.0,5.0,92,0.00,,,0.00,,2013-07-25 12:32:00,
2013-07-25 05:44:00,52.0,50.0,29.93,SW,225,2.0,7.0,92,0.00,,,0.00,,2013-07-25 12:44:00,
2013-07-25 05:52:00,52.0,50.0,29.93,SW,225,4.0,6.0,92,0.00,,,0.00,,2013-07-25 12:52:00,
2013-07-25 06:02:00,52.0,50.0,29.93,SW,225,4.0,4.0,92,0.00,,,0.00,,2013-07-25 13:02:00,
2013-07-25 07:11:00,52.0,50.0,29.96,WSW,248,4.0,4.0,92,0.00,,,0.00,,2013-07-25 14:11:00,
2013-07-25 07:33:00,53.0,51.0,29.99,SW,225,2.0,2.0,92,0.00,,,0.00,,2013-07-25 14:33:00,
2013-07-25 07:43:00,53.0,51.0,29.99,SW,225,2.0,3.0,92,0.00,,,0.00,,2013-07-25 14:43:00,
2013-07-25 07:53:00,53.0,50.0,29.99,WNW,293,4.0,4.0,91,0.00,,,0.00,,2013-07-25 14:53:00,
2013-07-25 08:02:00,53.0,50.0,29.99,WSW,248,0.0,4.0,91,0.00,,,0.00,,2013-07-25 15:02:00,
2013-07-25 08:11:00,53.0,50.0,29.99,South,180,3.0,4.0,91,0.00,,,0.00,,2013-07-25 15:11:00,
2013-07-25 08:32:00,53.0,50.0,29.99,WSW,248,5.0,5.0,91,0.00,,,0.00,,2013-07-25 15:32:00,
2013-07-25 08:43:00,54.0,51.0,29.99,SW,225,5.0,5.0,90,0.00,,,0.00,,2013-07-25 15:43:00,
2013-07-25 08:52:00,54.0,51.0,29.99,SSW,203,8.0,8.0,89,0.00,,,0.00,,2013-07-25 15:52:00,
2013-07-25 09:32:00,54.0,51.0,29.99,SW,225,3.0,6.0,88,0.00,,,0.00,,2013-07-25 16:32:00,
2013-07-25 10:02:00,55.0,51.0,29.99,SW,225,4.0,4.0,86,0.00,,,0.00,,2013-07-25 17:02:00,
2013-07-25 10:32:00,55.0,50.0,30.02,SW,225,2.0,6.0,84,0.00,,,0.00,,2013-07-25 17:32:00,
2013-07-25 10:43:00,55.0,50.0,30.02,SSW,203,4.0,4.0,83,0.00,,,0.00,,2013-07-25 17:43:00,
2013-07-25 10:53:00,56.0,51.0,30.02,SW,225,3.0,4.0,82,0.00,,,0.00,,2013-07-25 17:53:00,
2013-07-25 11:02:00,56.0,51.0,30.02,SW,225,3.0,3.0,82,0.00,,,0.00,,2013-07-25 18:02:00,
2013-07-25 11:33:00,57.0,51.0,30.02,SSW,203,2.0,8.0,79,0.00,,,0.00,,2013-07-25 18:33:00,
2013-07-25 11:42:00,57.0,51.0,30.02,SSW,203,6.0,6.0,79,0.00,,,0.00,,2013-07-25 18:42:00,
2013-07-25 11:52:00,57.0,51.0,30.02,SSW,203,3.0,6.0,79,0.00,,,0.00,,2013-07-25 18:52:00,
2013-07-25 12:02:00,57.0,51.0,30.02,SW,225,6.0,6.0,79,0.00,,,0.00,,2013-07-25 19:02:00,
2013-07-25 12:42:00,57.0,50.0,30.02,WSW,248,3.0,7.0,78,0.00,,,0.00,,2013-07-25 19:42:00,
2013-07-25 12:52:00,57.0,50.0,30.02,SW,225,6.0,6.0,78,0.00,,,0.00,,2013-07-25 19:52:00,
2013-07-25 13:32:00,58.0,50.0,30.02,SW,225,6.0,6.0,76,0.00,,,0.00,,2013-07-25 20:32:00,
2013-07-25 13:43:00,58.0,50.0,30.02,West,270,4.0,4.0,75,0.00,,,0.00,,2013-07-25 20:43:00,
2013-07-25 14:32:00,58.0,50.0,29.99,SW,225,5.0,5.0,74,0.00,,,0.00,,2013-07-25 21:32:00,
2013-07-25 14:44:00,58.0,50.0,29.99,South,180,3.0,3.0,74,0.00,,,0.00,,2013-07-25 21:44:00,
2013-07-25 14:52:00,59.0,51.0,29.99,West,270,6.0,11.0,74,0.00,,,0.00,,2013-07-25 21:52:00,
2013-07-25 15:52:00,59.0,50.0,29.99,SE,135,3.0,10.0,73,0.00,,,0.00,,2013-07-25 22:52:00,
2013-07-25 16:43:00,58.0,49.0,29.96,SSW,203,11.0,11.0,73,0.00,,,0.00,,2013-07-25 23:43:00,
2013-07-25 16:52:00,58.0,50.0,29.96,SSW,203,11.0,11.0,74,0.00,,,0.00,,2013-07-25 23:52:00,
2013-07-25 17:01:00,58.0,50.0,29.96,SW,225,7.0,7.0,74,0.00,,,0.00,,2013-07-26 00:01:00,
2013-07-25 17:32:00,58.0,49.0,29.96,SW,225,5.0,5.0,73,0.00,,,0.00,,2013-07-26 00:32:00,
2013-07-25 18:43:00,58.0,50.0,29.99,WSW,248,6.0,6.0,75,0.00,,,0.00,,2013-07-26 01:43:00,
2013-07-25 18:52:00,57.0,49.0,29.99,SW,225,6.0,6.0,75,0.00,,,0.00,,2013-07-26 01:52:00,
2013-07-25 19:02:00,57.0,50.0,29.99,SW,225,13.0,13.0,76,0.00,,,0.00,,2013-07-26 02:02:00,
2013-07-25 19:42:00,55.0,50.0,29.99,WSW,248,2.0,7.0,82,0.00,,,0.00,,2013-07-26 02:42:00,
2013-07-25 19:52:00,54.0,49.0,29.99,SW,225,4.0,8.0,83,0.00,,,0.00,,2013-07-26 02:52:00,
2013-07-25 20:02:00,54.0,49.0,29.99,WSW,248,3.0,4.0,84,0.00,,,0.00,,2013-07-26 03:02:00,
2013-07-25 20:32:00,54.0,50.0,29.99,SW,225,4.0,4.0,86,0.00,,,0.00,,2013-07-26 03:32:00,
2013-07-25 20:43:00,53.0,50.0,29.99,WSW,248,5.0,5.0,89,0.00,,,0.00,,2013-07-26 03:43:00,
2013-07-25 21:02:00,53.0,50.0,30.02,WSW,248,9.0,9.0,89,0.00,,,0.00,,2013-07-26 04:02:00,
2013-07-25 21:11:00,53.0,50.0,30.02,SSE,158,4.0,9.0,89,0.00,,,0.00,,2013-07-26 04:11:00,
2013-07-25 21:22:00,53.0,50.0,30.02,WSW,248,8.0,8.0,90,0.00,,,0.00,,2013-07-26 04:22:00,
2013-07-25 21:32:00,53.0,50.0,30.02,SW,225,6.0,6.0,91,0.00,,,0.00,,2013-07-26 04:32:00,
2013-07-25 21:42:00,53.0,50.0,30.02,SW,225,10.0,10.0,90,0.00,,,0.00,,2013-07-26 04:42:00,
2013-07-25 21:53:00,53.0,50.0,30.02,WSW,248,3.0,3.0,90,0.00,,,0.00,,2013-07-26 04:53:00,
2013-07-25 22:02:00,53.0,50.0,30.02,WSW,248,7.0,7.0,90,0.00,,,0.00,,2013-07-26 05:02:00,
2013-07-25 22:32:00,53.0,50.0,30.02,WSW,248,6.0,6.0,91,0.00,,,0.00,,2013-07-26 05:32:00,
2013-07-25 22:52:00,53.0,50.0,30.02,SSW,203,6.0,6.0,91,0.00,,,0.00,,2013-07-26 05:52:00,
2013-07-25 23:02:00,53.0,50.0,30.02,SSW,203,6.0,6.0,91,0.00,,,0.00,,2013-07-26 06:02:00,
2013-07-25 23:11:00,53.0,50.0,30.02,SW,225,3.0,6.0,91,0.00,,,0.00,,2013-07-26 06:11:00,
2013-07-25 23:33:00,53.0,51.0,30.02,SW,225,3.0,3.0,92,0.00,,,0.00,,2013-07-26 06:33:00,
2013-07-25 23:43:00,53.0,51.0,30.02,WSW,248,7.0,7.0,92,0.00,,,0.00,,2013-07-26 06:43:00,
2013-07-25 23:52:00,53.0,50.0,30.02,SW,225,2.0,3.0,91,0.00,,,0.00,,2013-07-26 06:52:00,